Theta_e
291 286 285 290 292 293 295 294 294 297 301 300 299 300 303 306 307 306 307 309 310 310 313 316 316 315 316 316 316 323 333 335 339 337 337 334 330 329 329 331 334 333 333 334
287 285 291 293 294 293 292 290 290 294 298 299 299 298 303 305 306 307 307 308 309 309 310 312 313 315 318 323 327 327 333 338 339 340 336 333 330 327 329 329 334 335 333 333
286 290 295 292 291 291 291 289 291 291 295 297 294 293 296 301 303 304 306 308 308 309 309 310 312 314 318 323 329 333 336 337 337 336 334 328 327 326 324 324 326 329 332 331
287 291 290 291 289 291 287 294 294 292 291 286 294 285 293 297 299 302 304 304 307 308 309 311 311 316 321 326 332 336 337 337 337 337 332 329 323 322 323 324 325 327 330 330
285 288 287 288 290 294 289 295 294 294 290 289 290 286 292 296 296 300 303 305 307 308 307 308 310 319 325 329 330 336 336 336 334 332 331 327 322 323 322 324 324 326 326 328
289 293 291 289 291 292 293 293 292 292 288 282 288 287 289 292 296 299 303 304 306 306 306 314 317 326 326 329 332 334 333 329 330 329 326 323 323 322 323 322 323 323 324 326
290 292 295 297 289 291 289 283 279 278 279 281 290 287 291 295 298 300 301 304 306 305 308 320 322 325 328 330 332 331 330 327 327 325 325 324 324 323 323 322 322 323 323 322
283 282 291 296 292 285 285 284 279 275 277 282 291 285 290 299 302 304 305 305 306 312 317 320 323 326 329 330 330 328 327 327 326 326 324 324 324 324 323 323 322 322 322 323
283 284 294 294 294 291 287 282 287 282 286 282 286 290 295 300 300 302 302 305 314 316 318 320 324 327 328 327 327 326 326 325 324 326 325 324 325 324 323 322 322 322 322 322
287 281 290 292 293 292 290 292 281 281 277 276 284 286 289 294 297 300 300 311 314 316 319 322 324 326 326 326 326 326 325 323 324 325 325 325 324 325 324 324 323 323 322 324
288 284 285 290 287 285 285 285 285 284 283 280 279 284 294 296 298 299 300 314 315 317 319 322 324 325 325 327 326 324 324 323 324 325 324 324 324 325 323 322 323 323 322 324
291 285 281 284 290 294 290 287 286 280 279 284 284 286 299 300 300 304 307 316 316 318 320 322 323 324 325 326 325 323 323 322 323 325 324 323 324 323 322 323 323 321 321 322
290 283 277 280 286 291 289 291 292 288 286 283 282 285 298 300 300 310 314 315 317 318 320 321 322 324 325 325 325 323 323 322 323 326 326 324 323 323 322 322 322 321 321 322
295 285 282 275 282 288 287 290 291 288 282 285 286 289 295 298 298 311 312 315 317 319 320 321 322 323 324 325 325 323 321 322 324 326 326 324 323 323 322 322 322 324 324 326
290 284 286 286 288 289 289 289 290 288 288 285 289 291 295 298 300 308 314 316 317 318 319 320 321 322 323 323 323 322 321 321 323 326 327 325 324 323 323 322 324 325 326 326
291 284 288 284 289 289 288 290 291 290 290 290 291 293 300 300 308 312 314 315 316 318 319 321 321 323 322 322 321 321 321 319 326 328 328 328 325 324 322 322 326 325 325 326
288 287 285 280 288 288 283 289 290 293 293 293 289 295 301 309 312 313 315 316 317 318 319 320 321 323 323 322 320 318 318 324 326 328 329 327 326 324 323 322 322 324 324 325
287 284 285 282 285 277 291 297 298 298 295 301 304 305 307 310 311 314 315 317 317 319 320 321 322 323 322 320 317 317 323 325 326 327 328 327 328 324 323 322 321 320 320 325
291 287 282 281 283 288 292 293 294 294 295 304 302 306 309 311 309 311 316 316 316 320 321 322 323 323 320 318 317 319 323 324 324 328 326 326 326 324 324 322 321 320 320 319
290 290 285 284 280 280 288 293 297 298 293 304 303 304 306 308 302 307 314 317 314 318 322 322 323 322 319 316 318 318 320 322 323 325 326 326 325 325 323 322 321 321 324 322
287 287 283 283 283 286 291 293 298 291 294 303 304 304 307 306 308 310 317 318 317 317 321 323 322 320 318 317 318 316 316 319 323 326 325 324 324 324 323 322 322 322 322 322
285 283 285 287 283 281 292 293 293 296 302 304 305 308 309 311 312 313 317 318 319 319 322 322 320 318 317 318 317 315 314 316 319 323 324 323 325 326 325 323 323 322 320 320
285 288 285 287 286 293 293 296 302 302 301 302 304 306 311 311 311 312 314 317 320 321 321 322 319 317 316 317 318 315 315 315 320 323 323 325 326 326 325 324 322 320 319 320
291 295 289 290 293 293 298 301 302 303 302 304 307 307 309 309 310 310 312 312 315 319 322 322 319 317 315 315 317 317 315 317 325 323 323 325 326 323 325 325 324 321 319 319
291 293 291 290 295 297 299 300 302 303 305 304 306 307 309 309 310 310 311 312 315 319 320 324 320 318 317 316 317 318 317 321 324 323 324 325 325 324 323 319 319 323 322 321
291 291 288 288 296 296 297 301 303 303 303 305 305 306 309 309 307 309 310 312 314 316 318 321 321 320 319 318 317 319 317 323 323 322 324 325 324 323 320 314 310 298 300 299
Wind_Speed
3 4 20 26 16 10 10 12 15 4 10 14 20 23 20 17 19 14 17 17 19 17 18 15 13 11 6 8 9 10 10 9 10 8 7 6 7 6 5 5 9 6 5 8
3 19 14 10 6 12 15 15 19 6 8 10 14 25 25 24 24 19 22 21 17 14 12 10 8 8 9 8 8 8 9 12 9 8 5 5 6 3 5 5 7 9 11 8
10 6 9 16 13 17 16 18 14 10 11 20 7 19 19 18 14 12 12 13 12 16 13 12 10 12 7 9 9 9 10 10 7 9 9 5 5 4 4 3 3 4 8 7
12 12 14 14 19 17 19 12 11 16 13 16 4 22 25 19 25 19 13 11 16 13 9 10 9 6 9 7 6 8 8 10 10 10 9 12 5 4 3 4 3 4 6 6
12 9 4 13 16 15 19 14 11 13 11 14 14 7 26 11 18 18 18 20 19 14 11 13 12 8 6 8 8 9 10 9 8 9 11 8 6 3 3 3 6 5 4 6
13 10 15 13 14 12 8 10 17 17 4 9 12 14 20 15 18 11 12 11 12 10 10 1 5 12 9 7 8 9 10 7 9 9 9 9 9 6 6 5 5 4 3 3
3 9 11 11 12 11 7 1 4 4 6 17 13 11 19 12 7 11 16 15 14 9 5 8 10 11 12 11 11 9 11 8 9 10 9 9 9 9 9 7 5 5 3 2
7 5 9 2 2 6 7 10 6 7 5 8 14 13 11 16 25 25 17 17 6 3 5 8 10 11 12 12 10 10 11 9 10 9 9 8 8 6 5 5 4 4 3 3
1 5 2 7 8 2 5 10 7 5 14 2 8 9 9 19 25 22 18 5 6 6 9 11 11 12 12 10 9 10 10 9 9 9 8 7 7 8 6 7 5 3 4 3
6 5 5 6 5 3 7 4 4 4 8 7 7 6 12 8 10 10 11 10 7 6 12 12 11 11 10 9 9 9 9 10 8 9 7 7 8 7 6 6 6 5 4 4
3 1 5 5 5 9 3 2 3 4 4 11 4 7 6 13 12 17 8 15 15 13 13 13 12 10 11 10 9 8 8 9 8 8 7 7 6 7 6 6 5 6 4 5
1 2 4 10 15 13 4 6 5 2 7 5 4 17 12 16 9 19 13 15 12 12 13 13 13 13 12 11 10 8 7 8 7 7 7 7 7 7 6 6 6 5 5 4
5 3 4 10 2 7 6 3 1 4 6 16 6 10 3 8 7 5 19 16 14 14 15 13 13 13 12 10 10 9 7 8 7 6 7 7 7 7 6 6 6 5 5 4
2 4 6 6 8 8 8 8 7 3 4 10 16 16 22 22 8 7 6 17 18 17 17 15 13 13 12 11 11 10 8 8 7 7 8 8 7 7 6 5 4 5 3 4
7 5 10 12 17 17 18 17 12 8 6 4 7 18 18 18 13 12 13 17 18 18 17 16 15 13 12 11 10 10 8 7 7 8 9 7 5 6 6 5 3 1 5 3
6 5 5 15 18 19 20 13 13 11 12 11 16 27 12 10 9 6 18 20 19 18 18 17 16 15 14 13 11 11 9 7 8 9 9 7 7 6 6 5 4 5 3 5
8 5 3 8 13 3 4 12 10 5 7 6 7 12 16 7 2 8 8 19 21 19 19 18 17 16 14 13 11 10 8 7 7 9 9 9 8 6 6 6 5 5 5 6
9 5 4 7 6 5 5 11 5 7 8 1 13 15 5 8 7 7 6 9 18 17 18 17 15 14 13 12 9 8 10 9 9 8 11 7 9 7 6 6 6 4 3 6
14 8 3 3 3 3 3 10 9 11 5 3 14 8 8 5 7 10 2 5 8 18 16 16 15 15 13 13 11 12 10 10 10 10 10 8 9 7 7 6 6 4 4 5
9 9 3 3 4 2 1 9 16 12 5 8 14 11 3 20 12 8 6 4 6 8 13 14 15 14 14 11 12 14 11 10 9 10 10 8 9 7 7 7 6 3 4 5
3 3 7 7 5 3 4 14 16 6 3 18 16 10 7 6 2 4 6 7 8 7 14 13 15 16 15 13 13 13 12 11 10 12 10 8 7 9 8 6 3 4 5 5
2 3 1 4 1 5 15 15 8 6 7 12 15 11 8 8 9 4 7 5 9 9 16 16 14 13 12 13 14 12 12 10 7 10 10 8 8 7 6 7 4 6 6 7
3 4 2 2 1 4 12 11 6 8 9 12 14 17 14 14 9 8 6 1 7 6 8 12 14 12 11 11 13 13 11 8 8 10 9 9 7 6 6 7 6 4 5 7
3 3 4 5 5 1 9 13 12 9 11 15 14 13 15 10 7 5 5 7 8 8 7 7 8 12 11 8 11 13 9 9 12 11 11 10 10 7 6 4 4 5 5 5
3 6 6 4 5 7 11 13 14 18 16 17 15 10 13 14 7 5 7 11 9 8 5 6 10 9 11 9 10 9 9 12 11 12 11 9 7 8 6 4 3 4 4 7
3 2 0 3 5 3 6 9 12 13 18 25 21 10 11 11 10 9 11 10 9 10 10 8 7 10 7 7 8 9 10 13 13 11 10 9 8 6 5 6 3 6 3 2
Wind_Direction
244 185 221 217 225 285 276 263 252 252 200 213 242 256 264 254 255 258 263 266 261 252 247 251 250 242 227 226 193 190 168 166 149 156 152 145 153 140 124 137 144 145 171 190
227 233 248 269 260 227 248 267 268 307 297 230 245 257 260 262 262 251 256 256 254 252 257 263 240 219 196 193 202 172 172 160 164 163 156 117 132 109 138 147 162 176 181 184
222 224 220 239 249 248 244 236 261 268 305 291 305 284 272 265 263 263 257 258 261 257 258 260 229 218 190 185 181 168 155 141 128 116 111 89 76 76 96 120 147 192 182 170
255 247 254 259 229 237 249 251 253 245 254 260 201 281 264 270 267 267 250 250 254 262 245 240 244 180 184 174 125 110 118 127 131 131 116 137 133 140 181 165 152 154 161 166
231 284 239 238 246 230 251 251 244 229 237 247 243 275 269 224 249 249 253 247 258 262 240 236 231 184 165 142 129 121 121 124 128 118 128 132 124 127 132 104 117 126 118 126
230 210 249 255 261 262 287 231 235 259 240 243 214 219 278 244 245 243 247 253 263 253 257 191 163 141 130 116 110 113 117 119 115 114 126 130 135 131 116 108 113 123 110 117
293 250 238 235 247 256 230 235 233 244 200 235 176 221 238 267 237 241 251 254 247 260 197 147 142 138 129 127 123 118 122 119 117 114 114 122 121 125 125 138 142 139 130 193
208 248 215 162 187 215 185 179 189 196 193 243 259 235 248 235 253 259 246 253 274 229 145 136 132 126 123 126 123 120 122 118 116 115 114 107 109 117 122 137 143 159 180 161
111 252 38 301 297 184 309 217 205 284 275 359 234 284 299 269 271 265 261 229 182 147 130 126 122 123 125 123 122 126 123 116 117 118 110 109 113 113 126 130 131 146 129 156
17 309 265 306 349 270 201 291 164 201 211 236 260 256 236 264 263 269 247 173 157 142 132 129 126 128 121 123 126 114 117 124 122 117 116 121 125 122 129 130 130 140 152 153
116 21 310 339 209 230 310 226 220 166 195 219 288 249 232 254 267 273 231 172 158 160 142 134 130 126 126 124 125 121 122 121 120 126 128 126 137 127 130 136 150 153 172 173
119 148 264 252 249 261 235 247 148 190 256 265 227 254 266 290 304 291 170 161 148 142 139 133 133 133 133 135 133 133 128 129 140 145 129 137 132 129 141 157 159 160 151 181
355 281 307 315 317 236 252 179 3 231 229 244 234 261 229 264 325 359 145 147 142 138 138 137 136 141 142 144 143 140 143 151 153 138 135 132 137 142 149 161 160 169 172 185
50 242 225 225 273 327 285 292 300 314 253 248 244 285 266 270 309 110 250 144 149 149 145 144 144 147 147 149 154 151 159 155 161 151 145 147 156 152 157 166 175 174 209 219
162 232 259 266 268 267 262 261 255 246 257 261 293 277 278 269 294 217 168 148 145 149 150 150 150 151 151 152 154 156 167 153 158 150 144 156 148 141 152 162 175 216 183 158
177 251 235 279 266 261 242 234 241 242 262 253 251 275 276 288 283 114 167 155 151 154 154 154 152 154 156 161 160 161 168 155 154 155 147 148 139 149 154 154 127 97 141 113
194 210 237 270 337 176 227 240 219 249 214 224 246 276 300 349 19 96 201 161 156 158 158 160 159 160 161 167 158 166 155 148 142 149 145 153 143 152 165 154 139 121 126 108
238 199 205 279 277 232 103 42 359 236 193 255 293 258 151 100 29 17 360 215 154 161 161 164 158 160 163 161 155 140 146 150 144 149 154 160 148 162 161 149 142 136 129 132
215 220 265 247 281 319 62 30 355 1 293 348 337 356 133 124 20 295 105 302 193 166 166 166 159 160 158 158 153 144 151 151 150 157 159 170 149 156 157 160 152 153 138 132
191 205 189 284 284 292 118 319 326 306 244 360 344 324 16 144 174 248 324 301 298 152 157 159 158 154 153 155 153 146 153 159 167 162 167 173 155 159 162 159 164 155 144 138
25 333 241 252 268 287 33 289 297 202 6 319 326 297 354 75 132 258 297 313 298 167 147 147 153 157 159 152 154 155 155 169 182 162 160 162 154 167 161 146 132 147 134 123
343 272 236 230 258 277 354 346 24 321 286 305 319 330 63 23 6 353 332 296 314 134 144 150 151 155 155 155 156 161 166 178 161 156 154 142 135 142 142 134 127 119 127 129
2 327 287 25 228 354 295 277 329 344 327 308 335 322 80 39 353 15 276 156 356 44 121 146 144 147 158 160 164 162 187 144 147 148 143 142 131 129 143 134 136 117 122 136
296 347 3 338 7 226 335 354 353 349 330 341 308 282 84 83 338 332 308 46 32 15 92 101 131 149 168 164 169 172 171 133 146 147 145 147 143 143 138 122 130 131 142 139
311 349 331 293 314 328 343 352 326 324 329 321 329 23 58 78 45 346 16 25 32 41 83 134 159 163 176 170 173 175 157 139 147 150 148 152 147 155 135 98 140 159 186 178
328 287 20 300 307 281 304 334 286 313 343 329 332 2 37 57 39 22 27 13 37 29 30 44 161 157 172 169 182 180 151 146 147 151 155 158 156 157 150 140 118 50 46 321